| time (UTC) | temp F | wind direction | speed MPH | gust MPH | rain 1hr in | rain 24hr in | rain mn in | humidity % | barometer mb |
| 20260904023728 | 83 | 128 | 0.0 | 1.0 | 0.00 | 0.00 | 0.00 | 58 | 1009.1 |
| 20260904023228 | 83 | 61 | 0.0 | 0.0 | 0.00 | 0.00 | 0.00 | 57 | 1009.0 |
| 20260904022728 | 83 | 61 | 0.0 | 0.0 | 0.00 | 0.00 | 0.00 | 57 | 1009.0 |
| 20260904022228 | 83 | 61 | 0.0 | 0.0 | 0.00 | 0.00 | 0.00 | 56 | 1009.0 |
| 20260904021724 | 83 | 61 | 0.0 | 0.0 | 0.00 | 0.00 | 0.00 | 56 | 1009.0 |
| 20260904021224 | 83 | 61 | 0.0 | 0.0 | 0.00 | 0.00 | 0.00 | 55 | 1008.9 |
| 20260904020727 | 83 | 59 | 0.0 | 0.0 | 0.00 | 0.00 | 0.00 | 56 | 1008.9 |
| 20260904020227 | 83 | 59 | 0.0 | 0.0 | 0.00 | 0.00 | 0.00 | 56 | 1009.0 |
| 20260904015727 | 83 | 59 | 0.0 | 0.0 | 0.00 | 0.00 | 0.00 | 56 | 1008.9 |
| 20260904015227 | 84 | 59 | 0.0 | 0.0 | 0.00 | 0.00 | 0.00 | 56 | 1008.9 |
| 20260904014727 | 84 | 104 | 0.0 | 5.0 | 0.00 | 0.00 | 0.00 | 54 | 1008.8 |
| 20260904014452 | 84 | 189 | 1.0 | 5.0 | 0.00 | 0.00 | 0.00 | 54 | 1008.8 |
| 20260904013727 | 85 | 176 | 0.0 | 9.0 | 0.00 | 0.00 | 0.00 | 53 | 1008.7 |
| 20260904013226 | 85 | 166 | 4.0 | 9.0 | 0.00 | 0.00 | 0.00 | 52 | 1008.8 |
| 20260904012944 | 85 | 179 | 3.0 | 11.0 | 0.00 | 0.00 | 0.00 | 52 | 1008.5 |
| 20260904012226 | 86 | 185 | 4.0 | 11.0 | 0.00 | 0.00 | 0.00 | 52 | 1008.4 |
| 20260904011726 | 86 | 188 | 6.0 | 11.0 | 0.00 | 0.00 | 0.00 | 51 | 1008.3 |
| 20260904011226 | 87 | 214 | 2.0 | 13.0 | 0.00 | 0.00 | 0.00 | 52 | 1008.1 |
| 20260904010726 | 87 | 204 | 5.0 | 13.0 | 0.00 | 0.00 | 0.00 | 51 | 1008.1 |
| 20260904010226 | 88 | 200 | 7.0 | 12.0 | 0.00 | 0.00 | 0.00 | 49 | 1008.1 |
| 20260904005943 | 88 | 219 | 4.0 | 9.0 | 0.00 | 0.00 | 0.00 | 48 | 1008.1 |
| 20260904005226 | 88 | 274 | 0.0 | 1.0 | 0.00 | 0.00 | 0.00 | 48 | 1007.8 |
| 20260904004944 | 87 | 290 | 0.0 | 0.0 | 0.00 | 0.00 | 0.00 | 49 | 1008.1 |
| 20260904004225 | 86 | 295 | 0.0 | 0.0 | 0.00 | 0.00 | 0.00 | 51 | 1008.2 |
| 20260904003726 | 87 | 334 | 0.0 | 0.0 | 0.00 | 0.00 | 0.00 | 51 | 1008.1 |
| 20260904003225 | 87 | 286 | 0.0 | 0.0 | 0.00 | 0.00 | 0.00 | 52 | 1007.9 |
| 20260904002725 | 87 | 290 | 0.0 | 3.0 | 0.00 | 0.00 | 0.00 | 52 | 1007.9 |
| 20260904002225 | 87 | 289 | 0.0 | 3.0 | 0.00 | 0.00 | 0.00 | 51 | 1007.8 |
| 20260904001725 | 87 | 292 | 0.0 | 1.0 | 0.00 | 0.00 | 0.00 | 51 | 1007.7 |
| 20260904001225 | 87 | 281 | 0.0 | 5.0 | 0.00 | 0.00 | 0.00 | 50 | 1007.8 |
| 20260904000724 | 87 | 220 | 0.0 | 7.0 | 0.00 | 0.00 | 0.00 | 50 | 1007.8 |
| 20260904000226 | 88 | 266 | 3.0 | 7.0 | 0.00 | 0.00 | 0.00 | 48 | 1008.1 |
| 20260903235724 | 88 | 265 | 1.0 | 10.0 | 0.00 | 0.00 | 0.00 | 48 | 1008.1 |
| 20260903235224 | 88 | 292 | 2.0 | 13.0 | 0.00 | 0.00 | 0.00 | 47 | 1008.1 |
| 20260903234944 | 89 | 259 | 6.0 | 13.0 | 0.00 | 0.00 | 0.00 | 47 | 1007.9 |
| 20260903234223 | 89 | 247 | 0.0 | 9.0 | 0.00 | 0.00 | 0.00 | 46 | 1008.1 |
| 20260903233724 | 89 | 257 | 2.0 | 11.0 | 0.00 | 0.00 | 0.00 | 46 | 1007.9 |
| 20260903233223 | 89 | 281 | 5.0 | 11.0 | 0.00 | 0.00 | 0.00 | 46 | 1007.8 |
| 20260903232724 | 89 | 265 | 3.0 | 7.0 | 0.00 | 0.00 | 0.00 | 45 | 1007.9 |
| 20260903232442 | 89 | 261 | 3.0 | 9.0 | 0.00 | 0.00 | 0.00 | 45 | 1007.9 |
| 20260903231723 | 89 | 241 | 2.0 | 9.0 | 0.00 | 0.00 | 0.00 | 44 | 1007.9 |
| 20260903231223 | 90 | 265 | 1.0 | 6.0 | 0.00 | 0.00 | 0.00 | 43 | 1007.9 |
| 20260903230724 | 90 | 247 | 1.0 | 6.0 | 0.00 | 0.00 | 0.00 | 43 | 1007.9 |
| 20260903230223 | 91 | 254 | 3.0 | 7.0 | 0.00 | 0.00 | 0.00 | 42 | 1007.9 |
| 20260903225724 | 92 | 286 | 4.0 | 7.0 | 0.00 | 0.00 | 0.00 | 42 | 1007.9 |
| 20260903225223 | 92 | 176 | 1.0 | 6.0 | 0.00 | 0.00 | 0.00 | 41 | 1007.9 |
| 20260903224723 | 91 | 240 | 2.0 | 5.0 | 0.00 | 0.00 | 0.00 | 41 | 1007.9 |
| 20260903224222 | 92 | 254 | 1.0 | 4.0 | 0.00 | 0.00 | 0.00 | 41 | 1007.8 |
| 20260903223722 | 92 | 227 | 0.0 | 6.0 | 0.00 | 0.00 | 0.00 | 41 | 1007.8 |
| 20260903223222 | 92 | 240 | 0.0 | 6.0 | 0.00 | 0.00 | 0.00 | 41 | 1007.8 |
| 20260903222722 | 92 | 190 | 0.0 | 4.0 | 0.00 | 0.00 | 0.00 | 40 | 1007.8 |
| 20260903222223 | 92 | 214 | 2.0 | 5.0 | 0.00 | 0.00 | 0.00 | 40 | 1007.9 |
| 20260903221722 | 91 | 279 | 2.0 | 5.0 | 0.00 | 0.00 | 0.00 | 41 | 1007.9 |
| 20260903221222 | 90 | 298 | 1.0 | 5.0 | 0.00 | 0.00 | 0.00 | 44 | 1008.1 |
| 20260903220942 | 90 | 8 | 2.0 | 5.0 | 0.00 | 0.00 | 0.00 | 43 | 1008.2 |
| 20260903220221 | 91 | 37 | 2.0 | 5.0 | 0.00 | 0.00 | 0.00 | 42 | 1008.2 |
| 20260903215722 | 92 | 58 | 0.0 | 0.0 | 0.00 | 0.00 | 0.00 | 40 | 1008.4 |
| 20260903215221 | 92 | 58 | 0.0 | 4.0 | 0.00 | 0.00 | 0.00 | 40 | 1008.4 |
| 20260903214722 | 91 | 224 | 1.0 | 5.0 | 0.00 | 0.00 | 0.00 | 43 | 1008.4 |
| 20260903214221 | 90 | 282 | 0.0 | 7.0 | 0.00 | 0.00 | 0.00 | 43 | 1008.4 |
| 20260903213721 | 92 | 274 | 4.0 | 7.0 | 0.00 | 0.00 | 0.00 | 42 | 1008.5 |
| 20260903213221 | 92 | 269 | 2.0 | 6.0 | 0.00 | 0.00 | 0.00 | 40 | 1008.6 |
| 20260903212721 | 93 | 274 | 3.0 | 9.0 | 0.00 | 0.00 | 0.00 | 41 | 1008.4 |
| 20260903212221 | 93 | 265 | 0.0 | 11.0 | 0.00 | 0.00 | 0.00 | 39 | 1008.6 |
| 20260903211721 | 92 | 302 | 6.0 | 11.0 | 0.00 | 0.00 | 0.00 | 40 | 1008.7 |
| 20260903211220 | 93 | 264 | 3.0 | 7.0 | 0.00 | 0.00 | 0.00 | 41 | 1008.7 |
| 20260903210721 | 92 | 217 | 1.0 | 4.0 | 0.00 | 0.00 | 0.00 | 42 | 1008.7 |
| 20260903210220 | 91 | 89 | 0.0 | 6.0 | 0.00 | 0.00 | 0.00 | 43 | 1008.8 |
| 20260903205720 | 91 | 355 | 3.0 | 6.0 | 0.00 | 0.00 | 0.00 | 42 | 1008.9 |
| 20260903205220 | 92 | 357 | 0.0 | 9.0 | 0.00 | 0.00 | 0.00 | 42 | 1008.9 |
| 20260903204720 | 92 | 306 | 0.0 | 9.0 | 0.00 | 0.00 | 0.00 | 41 | 1009.0 |
| 20260903204220 | 93 | 337 | 1.0 | 6.0 | 0.00 | 0.00 | 0.00 | 41 | 1009.0 |
| 20260903203720 | 92 | 266 | 2.0 | 6.0 | 0.00 | 0.00 | 0.00 | 42 | 1009.2 |
| 20260903203439 | 92 | 207 | 4.0 | 9.0 | 0.00 | 0.00 | 0.00 | 42 | 1009.1 |
| 20260903202719 | 93 | 283 | 3.0 | 9.0 | 0.00 | 0.00 | 0.00 | 41 | 1009.4 |
| 20260903202220 | 93 | 203 | 0.0 | 4.0 | 0.00 | 0.00 | 0.00 | 41 | 1009.5 |
| 20260903201719 | 92 | 230 | 1.0 | 5.0 | 0.00 | 0.00 | 0.00 | 42 | 1009.6 |
| 20260903201218 | 91 | 276 | 1.0 | 6.0 | 0.00 | 0.00 | 0.00 | 44 | 1009.6 |
| 20260903200719 | 91 | 283 | 1.0 | 6.0 | 0.00 | 0.00 | 0.00 | 44 | 1009.7 |
| 20260903200219 | 92 | 296 | 2.0 | 7.0 | 0.00 | 0.00 | 0.00 | 42 | 1009.8 |
| 20260903195718 | 92 | 209 | 2.0 | 7.0 | 0.00 | 0.00 | 0.00 | 43 | 1009.9 |
| 20260903195219 | 91 | 217 | 1.0 | 6.0 | 0.00 | 0.00 | 0.00 | 43 | 1009.9 |
| 20260903194719 | 92 | 220 | 3.0 | 6.0 | 0.00 | 0.00 | 0.00 | 43 | 1010.1 |
| 20260903194218 | 92 | 269 | 4.0 | 7.0 | 0.00 | 0.00 | 0.00 | 43 | 1010.1 |
| 20260903193719 | 91 | 180 | 3.0 | 7.0 | 0.00 | 0.00 | 0.00 | 44 | 1010.2 |
| 20260903193218 | 90 | 189 | 2.0 | 6.0 | 0.00 | 0.00 | 0.00 | 45 | 1010.2 |
| 20260903192718 | 89 | 90 | 0.0 | 5.0 | 0.00 | 0.00 | 0.00 | 47 | 1010.2 |
| 20260903192218 | 88 | 121 | 1.0 | 5.0 | 0.00 | 0.00 | 0.00 | 47 | 1010.3 |
| 20260903191718 | 90 | 65 | 1.0 | 4.0 | 0.00 | 0.00 | 0.00 | 45 | 1010.4 |
| 20260903191217 | 89 | 195 | 2.0 | 5.0 | 0.00 | 0.00 | 0.00 | 48 | 1010.5 |
| 20260903190718 | 89 | 231 | 1.0 | 5.0 | 0.00 | 0.00 | 0.00 | 47 | 1010.8 |
| 20260903190218 | 89 | 227 | 3.0 | 5.0 | 0.00 | 0.00 | 0.00 | 47 | 1010.8 |
| 20260903185717 | 88 | 244 | 0.0 | 4.0 | 0.00 | 0.00 | 0.00 | 48 | 1010.9 |
| 20260903185218 | 88 | 272 | 1.0 | 4.0 | 0.00 | 0.00 | 0.00 | 50 | 1010.9 |
| 20260903184717 | 88 | 210 | 0.0 | 6.0 | 0.00 | 0.00 | 0.00 | 50 | 1011.0 |
| 20260903184217 | 87 | 224 | 1.0 | 6.0 | 0.00 | 0.00 | 0.00 | 49 | 1011.1 |
| 20260903183717 | 87 | 241 | 1.0 | 4.0 | 0.00 | 0.00 | 0.00 | 51 | 1011.2 |
| 20260903183217 | 88 | 313 | 1.0 | 4.0 | 0.00 | 0.00 | 0.00 | 51 | 1011.3 |
| 20260903182716 | 88 | 285 | 0.0 | 3.0 | 0.00 | 0.00 | 0.00 | 51 | 1011.4 |
| 20260903182217 | 88 | 247 | 0.0 | 1.0 | 0.00 | 0.00 | 0.00 | 49 | 1011.5 |
| 20260903181716 | 89 | 200 | 0.0 | 4.0 | 0.00 | 0.00 | 0.00 | 50 | 1011.5 |
| 20260903181441 | 89 | 157 | 1.0 | 4.0 | 0.00 | 0.00 | 0.00 | 49 | 1011.6 |
| 20260903180933 | 88 | 151 | 0.0 | 2.0 | 0.00 | 0.00 | 0.00 | 49 | 1011.7 |
| 20260903180216 | 87 | 214 | 0.0 | 2.0 | 0.00 | 0.00 | 0.00 | 51 | 1011.7 |
| 20260903175716 | 86 | 172 | 0.0 | 4.0 | 0.00 | 0.00 | 0.00 | 52 | 1011.7 |
| 20260903175216 | 86 | 173 | 2.0 | 5.0 | 0.00 | 0.00 | 0.00 | 52 | 1011.8 |
| 20260903174715 | 86 | 220 | 2.0 | 6.0 | 0.00 | 0.00 | 0.00 | 53 | 1011.8 |
| 20260903174216 | 86 | 293 | 2.0 | 6.0 | 0.00 | 0.00 | 0.00 | 52 | 1011.8 |
| 20260903173715 | 87 | 213 | 2.0 | 5.0 | 0.00 | 0.00 | 0.00 | 52 | 1012.0 |
| 20260903173215 | 87 | 197 | 1.0 | 5.0 | 0.00 | 0.00 | 0.00 | 51 | 1012.0 |
| 20260903172716 | 87 | 207 | 2.0 | 5.0 | 0.00 | 0.00 | 0.00 | 51 | 1012.0 |
| 20260903172215 | 87 | 231 | 0.0 | 3.0 | 0.00 | 0.00 | 0.00 | 52 | 1012.0 |
| 20260903171715 | 86 | 92 | 1.0 | 3.0 | 0.00 | 0.00 | 0.00 | 54 | 1012.0 |
| 20260903171216 | 85 | 168 | 0.0 | 0.0 | 0.00 | 0.00 | 0.00 | 54 | 1012.0 |
| 20260903170715 | 85 | 152 | 0.0 | 0.0 | 0.00 | 0.00 | 0.00 | 56 | 1011.8 |
| 20260903170215 | 84 | 121 | 0.0 | 2.0 | 0.00 | 0.00 | 0.00 | 59 | 1012.0 |
| 20260903165714 | 84 | 152 | 1.0 | 2.0 | 0.00 | 0.00 | 0.00 | 57 | 1012.0 |
| 20260903165431 | 84 | 159 | 0.0 | 0.0 | 0.00 | 0.00 | 0.00 | 58 | 1012.0 |
| 20260903164938 | 83 | 80 | 0.0 | 0.0 | 0.00 | 0.00 | 0.00 | 59 | 1012.0 |
| 20260903164433 | 83 | 82 | 0.0 | 3.0 | 0.00 | 0.00 | 0.00 | 58 | 1012.0 |
| 20260903163714 | 83 | 158 | 2.0 | 3.0 | 0.00 | 0.00 | 0.00 | 59 | 1012.0 |
| 20260903163214 | 83 | 147 | 0.0 | 3.0 | 0.00 | 0.00 | 0.00 | 59 | 1012.0 |
| 20260903162932 | 82 | 162 | 0.0 | 4.0 | 0.00 | 0.00 | 0.00 | 61 | 1012.1 |
| 20260903162214 | 82 | 96 | 2.0 | 4.0 | 0.00 | 0.00 | 0.00 | 60 | 1012.0 |
| 20260903161936 | 82 | 82 | 0.0 | 4.0 | 0.00 | 0.00 | 0.00 | 60 | 1012.0 |
| 20260903161213 | 82 | 144 | 1.0 | 2.0 | 0.00 | 0.00 | 0.00 | 60 | 1012.1 |
| 20260903160713 | 81 | 111 | 0.0 | 3.0 | 0.00 | 0.00 | 0.00 | 61 | 1012.1 |
| 20260903160214 | 81 | 189 | 0.0 | 3.0 | 0.00 | 0.00 | 0.00 | 61 | 1012.1 |
| 20260903160157 | 81 | 149 | 0.0 | 1.0 | 0.00 | 0.00 | 0.00 | 62 | 1012.1 |
| 20260903155213 | 81 | 102 | 0.0 | 3.0 | 0.00 | 0.00 | 0.00 | 63 | 1012.1 |
| 20260903154713 | 81 | 109 | 1.0 | 3.0 | 0.00 | 0.00 | 0.00 | 63 | 1012.0 |
| 20260903154213 | 80 | 127 | 0.0 | 0.0 | 0.00 | 0.00 | 0.00 | 61 | 1012.1 |
| 20260903153713 | 80 | 133 | 0.0 | 0.0 | 0.00 | 0.00 | 0.00 | 63 | 1012.1 |
| 20260903153213 | 80 | 133 | 0.0 | 0.0 | 0.00 | 0.00 | 0.00 | 65 | 1012.1 |
| 20260903152713 | 80 | 149 | 0.0 | 1.0 | 0.00 | 0.00 | 0.00 | 67 | 1012.1 |
| 20260903152212 | 79 | 147 | 0.0 | 1.0 | 0.00 | 0.00 | 0.00 | 67 | 1012.2 |
| 20260903151712 | 79 | 152 | 0.0 | 2.0 | 0.00 | 0.00 | 0.00 | 68 | 1012.1 |
| 20260903151702 | 79 | 128 | 0.0 | 3.0 | 0.00 | 0.00 | 0.00 | 68 | 1012.1 |
| 20260903150712 | 79 | 128 | 1.0 | 3.0 | 0.00 | 0.00 | 0.00 | 67 | 1012.1 |
| 20260903150212 | 79 | 145 | 0.0 | 1.0 | 0.00 | 0.00 | 0.00 | 69 | 1012.0 |
| 20260903145712 | 79 | 114 | 0.0 | 3.0 | 0.00 | 0.00 | 0.00 | 68 | 1012.0 |
| 20260903145212 | 79 | 131 | 0.0 | 3.0 | 0.00 | 0.00 | 0.00 | 69 | 1012.0 |
| 20260903144711 | 79 | 102 | 0.0 | 1.0 | 0.00 | 0.00 | 0.00 | 70 | 1012.0 |
| 20260903144436 | 78 | 125 | 0.0 | 1.0 | 0.00 | 0.00 | 0.00 | 71 | 1012.0 |
| 20260903143712 | 78 | 106 | 0.0 | 1.0 | 0.00 | 0.00 | 0.00 | 71 | 1012.0 |
| 20260903143427 | 78 | 128 | 0.0 | 0.0 | 0.00 | 0.00 | 0.00 | 73 | 1011.8 |
| 20260903142711 | 78 | 35 | 0.0 | 0.0 | 0.00 | 0.00 | 0.00 | 74 | 1011.8 |
| 20260903142211 | 78 | 35 | 0.0 | 0.0 | 0.00 | 0.00 | 0.00 | 73 | 1011.8 |
| 20260903141937 | 78 | 35 | 0.0 | 0.0 | 0.00 | 0.00 | 0.00 | 73 | 1011.8 |
| 20260903141211 | 77 | 35 | 0.0 | 0.0 | 0.00 | 0.00 | 0.00 | 73 | 1011.8 |
| 20260903140710 | 77 | 35 | 0.0 | 0.0 | 0.00 | 0.00 | 0.00 | 74 | 1011.8 |
| 20260903140211 | 77 | 35 | 0.0 | 0.0 | 0.00 | 0.00 | 0.00 | 73 | 1011.8 |
| 20260903135932 | 77 | 35 | 0.0 | 0.0 | 0.00 | 0.00 | 0.00 | 74 | 1011.7 |
| 20260903135700 | 77 | 35 | 0.0 | 0.0 | 0.00 | 0.00 | 0.00 | 72 | 1011.7 |
| 20260903134710 | 76 | 35 | 0.0 | 0.0 | 0.00 | 0.00 | 0.00 | 73 | 1011.6 |
| 20260903134213 | 76 | 35 | 0.0 | 0.0 | 0.00 | 0.00 | 0.00 | 73 | 1011.7 |
| 20260903133710 | 76 | 35 | 0.0 | 0.0 | 0.00 | 0.00 | 0.00 | 73 | 1011.6 |
| 20260903133210 | 76 | 35 | 0.0 | 0.0 | 0.00 | 0.00 | 0.00 | 74 | 1011.6 |
| 20260903132709 | 76 | 35 | 0.0 | 0.0 | 0.00 | 0.00 | 0.00 | 74 | 1011.6 |
| 20260903132435 | 76 | 35 | 0.0 | 0.0 | 0.00 | 0.00 | 0.00 | 72 | 1011.6 |
| 20260903131709 | 76 | 35 | 0.0 | 0.0 | 0.00 | 0.00 | 0.00 | 72 | 1011.6 |
| 20260903131209 | 76 | 35 | 0.0 | 0.0 | 0.00 | 0.00 | 0.00 | 74 | 1011.4 |
| 20260903130709 | 76 | 34 | 0.0 | 0.0 | 0.00 | 0.00 | 0.00 | 73 | 1011.3 |
| 20260903130433 | 76 | 34 | 0.0 | 0.0 | 0.00 | 0.00 | 0.00 | 75 | 1011.3 |
| 20260903125709 | 76 | 34 | 0.0 | 0.0 | 0.00 | 0.00 | 0.00 | 74 | 1011.4 |
| 20260903125209 | 76 | 35 | 0.0 | 0.0 | 0.00 | 0.00 | 0.00 | 73 | 1011.3 |
| 20260903124709 | 76 | 35 | 0.0 | 0.0 | 0.00 | 0.00 | 0.00 | 76 | 1011.2 |
| 20260903124434 | 77 | 35 | 0.0 | 0.0 | 0.00 | 0.00 | 0.00 | 75 | 1011.2 |
| 20260903123708 | 77 | 35 | 0.0 | 0.0 | 0.00 | 0.00 | 0.00 | 72 | 1011.1 |
| 20260903123430 | 77 | 35 | 0.0 | 0.0 | 0.00 | 0.00 | 0.00 | 75 | 1011.0 |
| 20260903122708 | 77 | 35 | 0.0 | 0.0 | 0.00 | 0.00 | 0.00 | 71 | 1011.0 |
| 20260903122424 | 77 | 34 | 0.0 | 0.0 | 0.00 | 0.00 | 0.00 | 70 | 1011.0 |
| 20260903121708 | 77 | 34 | 0.0 | 0.0 | 0.00 | 0.00 | 0.00 | 71 | 1010.9 |
| 20260903121208 | 77 | 34 | 0.0 | 0.0 | 0.00 | 0.00 | 0.00 | 70 | 1010.9 |
| 20260903120708 | 77 | 34 | 0.0 | 0.0 | 0.00 | 0.00 | 0.00 | 70 | 1010.9 |
| 20260903120208 | 77 | 35 | 0.0 | 0.0 | 0.00 | 0.00 | 0.00 | 72 | 1010.9 |
| 20260903115929 | 77 | 35 | 0.0 | 0.0 | 0.00 | 0.00 | 0.00 | 73 | 1010.8 |
| 20260903115208 | 77 | 80 | 0.0 | 0.0 | 0.00 | 0.00 | 0.00 | 73 | 1010.8 |
| 20260903114707 | 77 | 82 | 0.0 | 0.0 | 0.00 | 0.00 | 0.00 | 73 | 1010.8 |
| 20260903114208 | 77 | 80 | 0.0 | 0.0 | 0.00 | 0.00 | 0.00 | 73 | 1010.7 |
| 20260903113707 | 77 | 82 | 0.0 | 0.0 | 0.00 | 0.00 | 0.00 | 72 | 1010.7 |
| 20260903113207 | 77 | 82 | 0.0 | 0.0 | 0.00 | 0.00 | 0.00 | 71 | 1010.7 |
| 20260903112707 | 77 | 82 | 0.0 | 0.0 | 0.00 | 0.00 | 0.00 | 71 | 1010.7 |
| 20260903112207 | 77 | 82 | 0.0 | 0.0 | 0.00 | 0.00 | 0.00 | 71 | 1010.7 |
| 20260903111925 | 77 | 80 | 0.0 | 0.0 | 0.00 | 0.00 | 0.00 | 72 | 1010.7 |
| 20260903111207 | 77 | 82 | 0.0 | 0.0 | 0.00 | 0.00 | 0.00 | 72 | 1010.7 |
| 20260903110706 | 77 | 80 | 0.0 | 0.0 | 0.00 | 0.00 | 0.00 | 72 | 1010.8 |
| 20260903110206 | 77 | 82 | 0.0 | 0.0 | 0.00 | 0.00 | 0.00 | 72 | 1010.8 |
| 20260903105707 | 77 | 82 | 0.0 | 0.0 | 0.00 | 0.00 | 0.00 | 71 | 1010.7 |
| 20260903104708 | 77 | 80 | 0.0 | 1.0 | 0.00 | 0.00 | 0.00 | 71 | 1010.8 |
| 20260903104206 | 77 | 92 | 0.0 | 0.0 | 0.00 | 0.00 | 0.00 | 71 | 1010.9 |
| 20260903104154 | 77 | 82 | 0.0 | 1.0 | 0.00 | 0.00 | 0.00 | 71 | 1011.0 |
| 20260903103428 | 77 | 82 | 0.0 | 1.0 | 0.00 | 0.00 | 0.00 | 71 | 1010.9 |
| 20260903102705 | 77 | 82 | 0.0 | 0.0 | 0.00 | 0.00 | 0.00 | 71 | 1010.9 |
| 20260903102206 | 77 | 82 | 0.0 | 0.0 | 0.00 | 0.00 | 0.00 | 71 | 1011.0 |
| 20260903101706 | 77 | 71 | 0.0 | 0.0 | 0.00 | 0.00 | 0.00 | 71 | 1011.0 |
| 20260903101428 | 77 | 80 | 0.0 | 0.0 | 0.00 | 0.00 | 0.00 | 72 | 1011.1 |
| 20260903100705 | 77 | 80 | 0.0 | 0.0 | 0.00 | 0.00 | 0.00 | 72 | 1011.1 |
| 20260903100204 | 78 | 80 | 0.0 | 0.0 | 0.00 | 0.00 | 0.00 | 71 | 1011.0 |
| 20260903095704 | 78 | 80 | 0.0 | 0.0 | 0.00 | 0.00 | 0.00 | 71 | 1011.0 |
| 20260903095207 | 78 | 82 | 0.0 | 0.0 | 0.00 | 0.00 | 0.00 | 71 | 1011.0 |
| 20260903094704 | 78 | 82 | 0.0 | 0.0 | 0.00 | 0.00 | 0.00 | 71 | 1011.0 |
| 20260903094205 | 78 | 117 | 0.0 | 0.0 | 0.00 | 0.00 | 0.00 | 71 | 1011.0 |
| 20260903093705 | 78 | 118 | 0.0 | 0.0 | 0.00 | 0.00 | 0.00 | 71 | 1010.9 |
| 20260903093421 | 78 | 118 | 0.0 | 0.0 | 0.00 | 0.00 | 0.00 | 71 | 1011.0 |
| 20260903092704 | 78 | 118 | 0.0 | 0.0 | 0.00 | 0.00 | 0.00 | 70 | 1011.1 |
| 20260903092205 | 78 | 117 | 0.0 | 0.0 | 0.00 | 0.00 | 0.00 | 70 | 1011.0 |
| 20260903091704 | 78 | 117 | 0.0 | 0.0 | 0.00 | 0.00 | 0.00 | 70 | 1011.0 |
| 20260903091203 | 78 | 117 | 0.0 | 0.0 | 0.00 | 0.00 | 0.00 | 69 | 1011.0 |
| 20260903090704 | 78 | 118 | 0.0 | 0.0 | 0.00 | 0.00 | 0.00 | 69 | 1011.0 |
| 20260903090204 | 78 | 118 | 0.0 | 0.0 | 0.00 | 0.00 | 0.00 | 69 | 1011.0 |
| 20260903085703 | 78 | 118 | 0.0 | 0.0 | 0.00 | 0.00 | 0.00 | 69 | 1011.0 |
| 20260903085644 | 78 | 118 | 0.0 | 0.0 | 0.00 | 0.00 | 0.00 | 68 | 1011.0 |
| 20260903084926 | 78 | 118 | 0.0 | 0.0 | 0.00 | 0.00 | 0.00 | 68 | 1010.9 |
| 20260903084423 | 78 | 118 | 0.0 | 0.0 | 0.00 | 0.00 | 0.00 | 69 | 1011.0 |
| 20260903083704 | 78 | 118 | 0.0 | 0.0 | 0.00 | 0.00 | 0.00 | 69 | 1011.0 |
| 20260903083418 | 79 | 118 | 0.0 | 0.0 | 0.00 | 0.00 | 0.00 | 67 | 1011.1 |
| 20260903082703 | 79 | 118 | 0.0 | 0.0 | 0.00 | 0.00 | 0.00 | 66 | 1011.0 |
| 20260903082421 | 79 | 118 | 0.0 | 0.0 | 0.00 | 0.00 | 0.00 | 66 | 1011.1 |
| 20260903082257 | 79 | 118 | 0.0 | 0.0 | 0.00 | 0.00 | 0.00 | 66 | 1011.1 |
| 20260903081702 | 79 | 76 | 0.0 | 0.0 | 0.00 | 0.00 | 0.00 | 66 | 1011.0 |
| 20260903081653 | 79 | 75 | 0.0 | 0.0 | 0.00 | 0.00 | 0.00 | 65 | 1011.1 |
| 20260903080922 | 79 | 75 | 0.0 | 0.0 | 0.00 | 0.00 | 0.00 | 65 | 1011.0 |
| 20260903080202 | 80 | 75 | 0.0 | 0.0 | 0.00 | 0.00 | 0.00 | 64 | 1011.0 |
| 20260903075702 | 80 | 75 | 0.0 | 0.0 | 0.00 | 0.00 | 0.00 | 64 | 1011.1 |
| 20260903075202 | 80 | 75 | 0.0 | 0.0 | 0.00 | 0.00 | 0.00 | 63 | 1011.1 |
| 20260903074702 | 80 | 76 | 0.0 | 3.0 | 0.00 | 0.00 | 0.00 | 62 | 1011.1 |
| 20260903074204 | 80 | 72 | 0.0 | 4.0 | 0.00 | 0.00 | 0.00 | 63 | 1011.1 |
| 20260903073925 | 80 | 303 | 1.0 | 4.0 | 0.00 | 0.00 | 0.00 | 63 | 1011.0 |
| 20260903073202 | 80 | 289 | 0.0 | 2.0 | 0.00 | 0.00 | 0.00 | 64 | 1011.1 |
| 20260903072701 | 80 | 324 | 0.0 | 4.0 | 0.00 | 0.00 | 0.00 | 63 | 1011.1 |
| 20260903072202 | 80 | 120 | 1.0 | 4.0 | 0.00 | 0.00 | 0.00 | 63 | 1011.1 |
| 20260903071701 | 80 | 111 | 0.0 | 1.0 | 0.00 | 0.00 | 0.00 | 63 | 1011.1 |
| 20260903071201 | 80 | 269 | 0.0 | 0.0 | 0.00 | 0.00 | 0.00 | 63 | 1011.1 |
| 20260903070700 | 80 | 269 | 0.0 | 0.0 | 0.00 | 0.00 | 0.00 | 63 | 1011.0 |
| 20260903070201 | 80 | 134 | 0.0 | 0.0 | 0.00 | 0.00 | 0.00 | 62 | 1010.9 |
| 20260903065701 | 80 | 134 | 0.0 | 0.0 | 0.00 | 0.00 | 0.00 | 62 | 1010.9 |
| 20260903065200 | 80 | 134 | 0.0 | 0.0 | 0.00 | 0.00 | 0.00 | 62 | 1010.8 |
| 20260903065153 | 80 | 135 | 0.0 | 0.0 | 0.00 | 0.00 | 0.00 | 61 | 1010.8 |
| 20260903064201 | 80 | 131 | 0.0 | 0.0 | 0.00 | 0.00 | 0.00 | 60 | 1010.8 |
| 20260903063926 | 80 | 102 | 0.0 | 0.0 | 0.00 | 0.00 | 0.00 | 60 | 1010.9 |
| 20260903063200 | 81 | 102 | 0.0 | 0.0 | 0.00 | 0.00 | 0.00 | 60 | 1010.8 |
| 20260903062700 | 81 | 71 | 0.0 | 0.0 | 0.00 | 0.00 | 0.00 | 59 | 1010.9 |
| 20260903062159 | 81 | 71 | 0.0 | 0.0 | 0.00 | 0.00 | 0.00 | 59 | 1010.9 |
| 20260903061700 | 81 | 71 | 0.0 | 0.0 | 0.00 | 0.00 | 0.00 | 59 | 1011.0 |
| 20260903061200 | 81 | 17 | 0.0 | 0.0 | 0.00 | 0.00 | 0.00 | 59 | 1010.9 |
| 20260903060659 | 81 | 17 | 0.0 | 0.0 | 0.00 | 0.00 | 0.00 | 59 | 1011.0 |
| 20260903060200 | 81 | 17 | 0.0 | 0.0 | 0.00 | 0.00 | 0.00 | 60 | 1011.0 |
| 20260903055659 | 81 | 8 | 0.0 | 0.0 | 0.00 | 0.00 | 0.00 | 59 | 1011.0 |
| 20260903055200 | 81 | 8 | 0.0 | 0.0 | 0.00 | 0.00 | 0.00 | 58 | 1011.1 |
| 20260903054659 | 81 | 8 | 0.0 | 0.0 | 0.00 | 0.00 | 0.00 | 59 | 1011.0 |
| 20260903054158 | 81 | 8 | 0.0 | 0.0 | 0.00 | 0.00 | 0.00 | 58 | 1011.0 |
| 20260903053659 | 81 | 8 | 0.0 | 0.0 | 0.00 | 0.00 | 0.00 | 60 | 1011.1 |
| 20260903053158 | 81 | 8 | 0.0 | 0.0 | 0.00 | 0.00 | 0.00 | 60 | 1011.2 |
| 20260903052659 | 81 | 8 | 0.0 | 0.0 | 0.00 | 0.00 | 0.00 | 60 | 1011.2 |
| 20260903052159 | 81 | 8 | 0.0 | 0.0 | 0.00 | 0.00 | 0.00 | 60 | 1011.1 |
| 20260903051658 | 80 | 8 | 0.0 | 1.0 | 0.00 | 0.00 | 0.00 | 60 | 1011.1 |
| 20260903051158 | 80 | 13 | 0.0 | 1.0 | 0.00 | 0.00 | 0.00 | 60 | 1011.3 |
| 20260903050701 | 80 | 54 | 0.0 | 0.0 | 0.00 | 0.00 | 0.00 | 60 | 1011.3 |
| 20260903050157 | 81 | 54 | 0.0 | 0.0 | 0.00 | 0.00 | 0.00 | 59 | 1011.3 |
| 20260903045919 | 81 | 54 | 0.0 | 0.0 | 0.00 | 0.00 | 0.00 | 58 | 1011.2 |
| 20260903045158 | 82 | 54 | 0.0 | 0.0 | 0.00 | 0.00 | 0.00 | 57 | 1011.2 |
| 20260903044916 | 82 | 54 | 0.0 | 0.0 | 0.00 | 0.00 | 0.00 | 56 | 1011.1 |
| 20260903044912 | 82 | 54 | 0.0 | 0.0 | 0.00 | 0.00 | 0.00 | 56 | 1011.1 |
| 20260903044710 | 82 | 54 | 0.0 | 0.0 | 0.00 | 0.00 | 0.00 | 56 | 1011.1 |
| 20260903044649 | 82 | 54 | 0.0 | 0.0 | 0.00 | 0.00 | 0.00 | 56 | 1011.1 |
| 20260903044203 | 82 | 54 | 0.0 | 0.0 | 0.00 | 0.00 | 0.00 | 56 | 1011.1 |
| 20260903043657 | 82 | 54 | 0.0 | 0.0 | 0.00 | 0.00 | 0.00 | 55 | 1011.1 |
| 20260903043157 | 82 | 54 | 0.0 | 0.0 | 0.00 | 0.00 | 0.00 | 54 | 1011.1 |
| 20260903042700 | 82 | 54 | 0.0 | 0.0 | 0.00 | 0.00 | 0.00 | 55 | 1010.9 |
| 20260903042420 | 83 | 52 | 0.0 | 0.0 | 0.00 | 0.00 | 0.00 | 54 | 1011.0 |
| 20260903042200 | 83 | 52 | 0.0 | 0.0 | 0.00 | 0.00 | 0.00 | 54 | 1011.0 |
| 20260903041657 | 83 | 34 | 0.0 | 1.0 | 0.00 | 0.00 | 0.00 | 54 | 1010.9 |
| 20260903041156 | 83 | 34 | 0.0 | 1.0 | 0.00 | 0.00 | 0.00 | 54 | 1010.9 |
| 20260903040657 | 83 | 41 | 0.0 | 2.0 | 0.00 | 0.00 | 0.00 | 55 | 1011.0 |
| 20260903040157 | 83 | 42 | 0.0 | 2.0 | 0.00 | 0.00 | 0.00 | 54 | 1011.0 |
| 20260903035656 | 83 | 44 | 0.0 | 1.0 | 0.00 | 0.00 | 0.00 | 55 | 1011.0 |
| 20260903035157 | 82 | 28 | 0.0 | 1.0 | 0.00 | 0.00 | 0.00 | 54 | 1010.9 |
| 20260903034700 | 82 | 97 | 0.0 | 0.0 | 0.00 | 0.00 | 0.00 | 55 | 1010.9 |
| 20260903034422 | 82 | 97 | 0.0 | 0.0 | 0.00 | 0.00 | 0.00 | 56 | 1010.9 |
| 20260903033915 | 82 | 104 | 0.0 | 0.0 | 0.00 | 0.00 | 0.00 | 56 | 1010.9 |
| 20260903033701 | 82 | 104 | 0.0 | 0.0 | 0.00 | 0.00 | 0.00 | 56 | 1010.9 |
| 20260903033156 | 82 | 104 | 0.0 | 0.0 | 0.00 | 0.00 | 0.00 | 57 | 1010.8 |
| 20260903032655 | 82 | 116 | 0.0 | 0.0 | 0.00 | 0.00 | 0.00 | 58 | 1010.7 |
| 20260903032423 | 82 | 116 | 0.0 | 0.0 | 0.00 | 0.00 | 0.00 | 59 | 1010.5 |
| 20260903031655 | 82 | 116 | 0.0 | 0.0 | 0.00 | 0.00 | 0.00 | 59 | 1010.4 |
| 20260903031156 | 82 | 116 | 0.0 | 0.0 | 0.00 | 0.00 | 0.00 | 58 | 1010.3 |
| 20260903030655 | 82 | 116 | 0.0 | 0.0 | 0.00 | 0.00 | 0.00 | 59 | 1010.3 |
| 20260903030156 | 81 | 116 | 0.0 | 0.0 | 0.00 | 0.00 | 0.00 | 59 | 1010.2 |
| 20260903025655 | 81 | 116 | 0.0 | 0.0 | 0.00 | 0.00 | 0.00 | 60 | 1010.1 |
| 20260903025154 | 81 | 116 | 0.0 | 0.0 | 0.00 | 0.00 | 0.00 | 60 | 1010.0 |
| 20260903024655 | 82 | 116 | 0.0 | 0.0 | 0.00 | 0.00 | 0.00 | 61 | 1010.0 |